ECHOSTAR 18

Last updated on Mon Oct 14 2024 00:02:40 GMT+0000 (Coordinated Universal Time)

1 41592U 16039B 24286.82230147 -.00000282 00000+0 00000+0 0 9990 2 41592 0.0028 113.4296 0001635 82.4911 60.6645 1.00270194 30485
UTC large
Height (km)
Speed (km/s)
/
Latitude / Longitude
Inclination (degrees)
Orbital Period (minutes)
Azimuth
Elevation
Range (km)
Doppler Factor

Next 0 passes for location: London (51.5072 / 0.1276)

Sorry there are no passes over London.